View from above orbital plane
|
View from above satellite
|
Ground track
|
The orbit data is extracted from the following two-line orbital elements,
1 43145U 18005A 21103.92462452 0.00000000 00000-0 00000-0 0 05
2 43145 106.0266 222.0819 0005003 301.3675 58.6324 13.48008042 05
Epoch (UTC): | 13 April 2021 22:11:27 |
Eccentricity: | 0.0005003 |
inclination: | 106.0266° |
perigee height: | 1076 km |
apogee height: | 1083 km |
right ascension of ascending node: | 222.0819° |
argument of perigee: | 301.3675° |
revolutions per day: | 13.48008042 |
mean anomaly at epoch: | 58.6324° |
orbit number at epoch: | 0 |
The dashed part of the orbit path shows where the satellite is in the earth's shadow,
|
|